Time,TemperatureF,DewpointF,PressureIn,WindDirection,WindDirectionDegrees,WindSpeedMPH,WindSpeedGustMPH,Humidity,HourlyPrecipIn,Conditions,Clouds,dailyrainin,SoftwareType,DateUTC
2013-09-08 00:02:00,-999.0,-99.9,30.08,West,262,0.0,0.0,-999,-99.99,,,-99.99,,2013-09-08 04:02:00,
2013-09-08 00:24:00,64.0,59.0,30.08,West,262,0.0,0.0,83,0.00,,,0.00,,2013-09-08 04:24:00,
2013-09-08 00:43:00,64.0,59.0,30.08,West,262,0.0,0.0,85,0.00,,,0.00,,2013-09-08 04:43:00,
2013-09-08 00:54:00,64.0,58.0,30.08,West,262,0.0,0.0,81,0.00,,,0.00,,2013-09-08 04:54:00,
2013-09-08 01:13:00,64.0,58.0,30.08,West,262,0.0,0.0,82,0.00,,,0.00,,2013-09-08 05:13:00,
2013-09-08 01:23:00,64.0,58.0,30.07,West,262,0.0,0.0,80,0.00,,,0.00,,2013-09-08 05:23:00,
2013-09-08 01:52:00,64.0,57.0,30.07,WNW,285,0.0,1.0,79,0.00,,,0.00,,2013-09-08 05:52:00,
2013-09-08 02:13:00,64.0,57.0,30.06,North,358,0.0,0.0,78,0.00,,,0.00,,2013-09-08 06:13:00,
2013-09-08 02:22:00,64.0,57.0,30.06,East,88,0.0,2.0,79,0.00,,,0.00,,2013-09-08 06:22:00,
2013-09-08 02:53:00,64.0,57.0,30.04,North,349,0.0,1.0,79,0.00,,,0.00,,2013-09-08 06:53:00,
2013-09-08 03:02:00,64.0,57.0,30.04,North,349,0.0,1.0,79,0.00,,,0.00,,2013-09-08 07:02:00,
2013-09-08 03:12:00,64.0,57.0,30.04,North,349,0.0,1.0,79,0.00,,,0.00,,2013-09-08 07:12:00,
2013-09-08 03:23:00,64.0,57.0,30.03,North,349,0.0,0.0,79,0.00,,,0.00,,2013-09-08 07:23:00,
2013-09-08 03:52:00,64.0,57.0,30.02,East,79,0.0,1.0,78,0.00,,,0.00,,2013-09-08 07:52:00,
2013-09-08 04:12:00,64.0,57.0,30.02,ENE,70,0.0,2.0,77,0.00,,,0.00,,2013-09-08 08:12:00,
2013-09-08 04:22:00,64.0,56.0,30.01,ENE,67,0.0,1.0,74,0.00,,,0.00,,2013-09-08 08:22:00,
2013-09-08 04:52:00,64.0,56.0,30.01,NW,320,0.0,0.0,75,0.00,,,0.00,,2013-09-08 08:52:00,
2013-09-08 05:11:00,64.0,56.0,30.01,SW,235,0.0,1.0,75,0.00,,,0.00,,2013-09-08 09:11:00,
2013-09-08 05:22:00,64.0,56.0,30.00,ENE,72,0.0,1.0,75,0.00,,,0.00,,2013-09-08 09:22:00,
2013-09-08 05:54:00,64.0,57.0,29.99,SE,141,0.0,3.0,77,0.00,,,0.00,,2013-09-08 09:54:00,
2013-09-08 06:12:00,64.0,57.0,30.00,SW,226,0.0,2.0,79,0.00,,,0.00,,2013-09-08 10:12:00,
2013-09-08 06:23:00,63.0,57.0,30.00,SW,226,0.0,0.0,82,0.00,,,0.00,,2013-09-08 10:23:00,
2013-09-08 06:42:00,63.0,58.0,30.00,SW,226,0.0,0.0,83,0.00,,,0.00,,2013-09-08 10:42:00,
2013-09-08 06:53:00,63.0,58.0,30.00,SW,235,0.0,1.0,85,0.00,,,0.00,,2013-09-08 10:53:00,
2013-09-08 07:12:00,63.0,58.0,30.00,North,5,0.0,2.0,85,0.00,,,0.00,,2013-09-08 11:12:00,
2013-09-08 07:22:00,63.0,58.0,30.00,North,358,0.0,0.0,85,0.00,,,0.00,,2013-09-08 11:22:00,
2013-09-08 07:42:00,63.0,59.0,30.01,North,358,0.0,0.0,86,0.00,,,0.00,,2013-09-08 11:42:00,
2013-09-08 07:52:00,63.0,59.0,30.00,North,358,0.0,0.0,86,0.00,,,0.00,,2013-09-08 11:52:00,
2013-09-08 08:12:00,63.0,59.0,29.99,North,359,0.0,0.0,86,0.00,,,0.00,,2013-09-08 12:12:00,
2013-09-08 08:22:00,63.0,59.0,29.98,North,359,0.0,0.0,86,0.00,,,0.00,,2013-09-08 12:22:00,
2013-09-08 08:52:00,64.0,59.0,29.99,NNW,330,0.0,1.0,85,0.00,,,0.00,,2013-09-08 12:52:00,
2013-09-08 09:12:00,65.0,60.0,29.99,West,276,0.0,1.0,83,0.00,,,0.00,,2013-09-08 13:12:00,
2013-09-08 09:22:00,66.0,60.0,30.00,WSW,253,0.0,2.0,82,0.00,,,0.00,,2013-09-08 13:22:00,
2013-09-08 09:42:00,67.0,61.0,29.99,WNW,294,0.0,2.0,81,0.00,,,0.00,,2013-09-08 13:42:00,
2013-09-08 09:52:00,68.0,62.0,29.99,West,269,0.0,3.0,80,0.00,,,0.00,,2013-09-08 13:52:00,
2013-09-08 10:11:00,68.0,61.0,29.99,NW,322,0.0,2.0,78,0.00,,,0.00,,2013-09-08 14:11:00,
2013-09-08 10:22:00,68.0,62.0,29.99,West,262,0.0,2.0,80,0.00,,,0.00,,2013-09-08 14:22:00,
2013-09-08 10:42:00,68.0,62.0,29.99,SW,232,0.0,3.0,80,0.00,,,0.00,,2013-09-08 14:42:00,
2013-09-08 10:52:00,70.0,62.0,29.99,NW,316,2.0,6.0,77,0.00,,,0.00,,2013-09-08 14:52:00,
2013-09-08 11:12:00,69.0,61.0,29.99,WSW,252,0.0,3.0,77,0.00,,,0.00,,2013-09-08 15:12:00,
2013-09-08 11:23:00,69.0,63.0,30.00,West,273,0.0,3.0,80,0.00,,,0.00,,2013-09-08 15:23:00,
2013-09-08 11:45:00,69.0,63.0,30.00,WNW,294,0.0,3.0,81,0.00,,,0.00,,2013-09-08 15:45:00,
2013-09-08 11:55:00,70.0,63.0,30.01,NW,315,1.0,3.0,78,0.00,,,0.00,,2013-09-08 15:55:00,
2013-09-08 12:14:00,70.0,62.0,30.01,WSW,238,1.0,7.0,76,0.00,,,0.00,,2013-09-08 16:14:00,
2013-09-08 12:24:00,68.0,61.0,30.03,NE,53,1.0,6.0,77,0.00,,,0.00,,2013-09-08 16:24:00,
2013-09-08 12:44:00,67.0,60.0,30.03,WSW,257,1.0,6.0,77,0.00,,,0.00,,2013-09-08 16:44:00,
2013-09-08 12:54:00,70.0,61.0,30.03,West,266,1.0,6.0,72,0.00,,,0.00,,2013-09-08 16:54:00,
2013-09-08 13:12:00,70.0,58.0,30.03,North,352,2.0,5.0,66,0.00,,,0.00,,2013-09-08 17:12:00,
2013-09-08 13:24:00,71.0,57.0,30.04,WNW,294,3.0,7.0,62,0.00,,,0.00,,2013-09-08 17:24:00,
2013-09-08 13:53:00,71.0,54.0,30.05,ENE,63,2.0,6.0,56,0.00,,,0.00,,2013-09-08 17:53:00,
2013-09-08 14:13:00,71.0,54.0,30.06,North,5,1.0,10.0,56,0.00,,,0.00,,2013-09-08 18:13:00,
2013-09-08 14:22:00,71.0,53.0,30.06,West,270,1.0,6.0,53,0.00,,,0.00,,2013-09-08 18:22:00,
2013-09-08 14:42:00,71.0,54.0,30.06,East,87,2.0,6.0,54,0.00,,,0.00,,2013-09-08 18:42:00,
2013-09-08 14:52:00,70.0,50.0,30.07,West,273,2.0,7.0,50,0.00,,,0.00,,2013-09-08 18:52:00,
2013-09-08 15:12:00,70.0,49.0,30.08,WNW,284,2.0,5.0,48,0.00,,,0.00,,2013-09-08 19:12:00,
2013-09-08 15:22:00,69.0,50.0,30.09,SSW,205,2.0,6.0,50,0.00,,,0.00,,2013-09-08 19:22:00,
2013-09-08 15:42:00,68.0,52.0,30.09,North,7,1.0,5.0,56,0.00,,,0.00,,2013-09-08 19:42:00,
2013-09-08 15:52:00,67.0,51.0,30.09,NW,307,1.0,3.0,56,0.00,,,0.00,,2013-09-08 19:52:00,
2013-09-08 16:12:00,66.0,48.0,30.10,NE,55,2.0,9.0,52,0.00,,,0.00,,2013-09-08 20:12:00,
2013-09-08 16:22:00,65.0,50.0,30.11,West,259,1.0,3.0,59,0.00,,,0.00,,2013-09-08 20:22:00,
2013-09-08 16:42:00,64.0,49.0,30.12,WSW,257,1.0,3.0,59,0.00,,,0.00,,2013-09-08 20:42:00,
2013-09-08 17:12:00,64.0,51.0,30.13,WNW,284,1.0,5.0,62,0.00,,,0.00,,2013-09-08 21:12:00,
2013-09-08 17:22:00,63.0,48.0,30.14,West,273,2.0,9.0,58,0.00,,,0.00,,2013-09-08 21:22:00,
2013-09-08 17:43:00,63.0,48.0,30.14,WNW,282,1.0,6.0,59,0.00,,,0.00,,2013-09-08 21:43:00,
2013-09-08 17:54:00,62.0,47.0,30.15,NE,52,1.0,5.0,57,0.00,,,0.00,,2013-09-08 21:54:00,
2013-09-08 18:13:00,62.0,47.0,30.16,ESE,111,1.0,6.0,58,0.00,,,0.00,,2013-09-08 22:13:00,
2013-09-08 18:25:00,61.0,46.0,30.17,WSW,243,2.0,7.0,58,0.00,,,0.00,,2013-09-08 22:25:00,
2013-09-08 18:53:00,59.0,48.0,30.19,NW,316,0.0,3.0,67,0.00,,,0.00,,2013-09-08 22:53:00,
2013-09-08 19:12:00,59.0,48.0,30.19,WNW,284,0.0,2.0,66,0.00,,,0.00,,2013-09-08 23:12:00,
2013-09-08 19:22:00,58.0,46.0,30.20,WNW,283,1.0,3.0,64,0.00,,,0.00,,2013-09-08 23:22:00,
2013-09-08 19:53:00,57.0,46.0,30.22,WSW,249,0.0,1.0,67,0.00,,,0.00,,2013-09-08 23:53:00,
2013-09-08 20:11:00,56.0,46.0,30.22,West,262,0.0,1.0,70,0.00,,,0.00,,2013-09-09 00:11:00,
2013-09-08 20:22:00,55.0,44.0,30.24,West,262,0.0,0.0,66,0.00,,,0.00,,2013-09-09 00:22:00,
2013-09-08 20:42:00,55.0,45.0,30.25,West,262,0.0,0.0,68,0.00,,,0.00,,2013-09-09 00:42:00,
2013-09-08 20:52:00,54.0,45.0,30.27,West,262,0.0,2.0,71,0.00,,,0.00,,2013-09-09 00:52:00,
2013-09-08 21:12:00,54.0,44.0,30.28,West,262,0.0,0.0,69,0.00,,,0.00,,2013-09-09 01:12:00,
2013-09-08 21:21:00,53.0,44.0,30.28,West,262,0.0,0.0,72,0.00,,,0.00,,2013-09-09 01:21:00,
2013-09-08 21:42:00,53.0,44.0,30.29,West,262,0.0,1.0,71,0.00,,,0.00,,2013-09-09 01:42:00,
2013-09-08 21:52:00,53.0,46.0,30.29,SE,133,1.0,3.0,76,0.00,,,0.00,,2013-09-09 01:52:00,
2013-09-08 22:11:00,54.0,44.0,30.30,ESE,122,0.0,3.0,69,0.00,,,0.00,,2013-09-09 02:11:00,
2013-09-08 22:22:00,53.0,43.0,30.31,NNW,330,0.0,1.0,69,0.00,,,0.00,,2013-09-09 02:22:00,
2013-09-08 22:42:00,53.0,43.0,30.31,NNW,330,0.0,1.0,70,0.00,,,0.00,,2013-09-09 02:42:00,
2013-09-08 22:53:00,52.0,43.0,30.32,NNW,330,0.0,0.0,72,0.00,,,0.00,,2013-09-09 02:53:00,
2013-09-08 23:12:00,51.0,44.0,30.32,NNW,330,0.0,0.0,76,0.00,,,0.00,,2013-09-09 03:12:00,
2013-09-08 23:22:00,50.0,44.0,30.33,NNW,330,0.0,0.0,80,0.00,,,0.00,,2013-09-09 03:22:00,
2013-09-08 23:55:00,48.0,43.0,30.34,NNW,330,0.0,0.0,83,0.00,,,0.00,,2013-09-09 03:55:00,